This is the latest recevied weather packets stored in our database for station/object KC3AWA. If no packets are shown the sender has not sent any weather packets the latest 10 day(s).
| Time | Temp. | Humidity | Pressure | Rain* | Wind** | Luminosity | Snow |
|---|---|---|---|---|---|---|---|
| 1777402164 | 13.33° C | 91% | 1014.8 hPa | 0 mm | - | 85 W/m² | - |
| 1777401859 | 13.33° C | 91% | 1014.8 hPa | 0 mm | - | 92 W/m² | - |
| 1777401558 | 13.33° C | 91% | 1014.9 hPa | 0 mm | - | 99 W/m² | - |
| 1777401254 | 13.33° C | 91% | 1014.9 hPa | 0 mm | - | 116 W/m² | - |
| 1777400950 | 13.33° C | 90% | 1014.9 hPa | 0 mm | - | 106 W/m² | - |
| 1777400646 | 13.33° C | 90% | 1015 hPa | 0 mm | - | 94 W/m² | - |
| 1777400344 | 13.33° C | 88% | 1015 hPa | 0 mm | - | 111 W/m² | - |
| 1777400039 | 13.89° C | 87% | 1015.1 hPa | 0 mm | - | 112 W/m² | - |
| 1777399737 | 13.33° C | 86% | 1015 hPa | 0 mm | - | 95 W/m² | - |
| 1777399433 | 13.33° C | 85% | 1015 hPa | 0 mm | - | 109 W/m² | - |
| 1777399131 | 13.33° C | 85% | 1014.9 hPa | 0 mm | - | 98 W/m² | - |
| 1777398828 | 13.33° C | 84% | 1014.6 hPa | 0 mm | - | 116 W/m² | - |
| 1777398525 | 13.33° C | 85% | 1014.9 hPa | 0 mm | - | 118 W/m² | - |
| 1777398221 | 13.33° C | 84% | 1014.8 hPa | 0 mm | - | 117 W/m² | - |
| 1777397919 | 13.33° C | 83% | 1014.8 hPa | 0 mm | - | 108 W/m² | - |
| 1777397614 | 13.33° C | 84% | 1014.9 hPa | 0 mm | - | 127 W/m² | - |
| 1777397310 | 13.33° C | 84% | 1015.2 hPa | 0 mm | - | 131 W/m² | - |
| 1777397007 | 13.33° C | 83% | 1014.9 hPa | 0 mm | - | 159 W/m² | - |
| 1777396704 | 13.33° C | 83% | 1014.9 hPa | 0 mm | - | 140 W/m² | - |
| 1777396400 | 13.33° C | 83% | 1014.9 hPa | 0 mm | - | 163 W/m² | - |
| 1777396097 | 13.33° C | 83% | 1014.8 hPa | 0 mm | - | 156 W/m² | - |
| 1777395793 | 13.33° C | 83% | 1014.8 hPa | 0 mm | - | 165 W/m² | - |
| 1777395488 | 13.33° C | 83% | 1014.8 hPa | 0 mm | - | 183 W/m² | - |
| 1777395186 | 13.33° C | 82% | 1015 hPa | 0 mm | - | 121 W/m² | - |
| 1777394883 | 13.33° C | 83% | 1015 hPa | 0 mm | - | 123 W/m² | - |
* Rain latest hour (hover to see other rain measurements)
** Current wind speed in m/s (hover to see current wind gust speed)